Time,TemperatureF,DewpointF,PressureIn,WindDirection,WindDirectionDegrees,WindSpeedMPH,WindSpeedGustMPH,Humidity,HourlyPrecipIn,Conditions,Clouds,dailyrainin,SoftwareType,DateUTC
2013-07-24 00:00:00,65.2,52.2,29.87,North,0,0.0,0.0,63,0.00,,,0.00,WUHU216HW,2013-07-24 07:00:00,
2013-07-24 00:05:00,64.8,52.3,29.87,North,0,0.0,0.0,64,0.00,,,0.00,WUHU216HW,2013-07-24 07:05:00,
2013-07-24 00:10:00,64.6,52.1,29.87,North,0,0.0,0.0,64,0.00,,,0.00,WUHU216HW,2013-07-24 07:10:00,
2013-07-24 00:15:00,64.1,52.0,29.87,North,0,0.0,0.0,65,0.00,,,0.00,WUHU216HW,2013-07-24 07:15:00,
2013-07-24 00:20:00,63.7,51.7,29.87,North,0,0.0,0.0,65,0.00,,,0.00,WUHU216HW,2013-07-24 07:20:00,
2013-07-24 00:25:00,63.2,51.2,29.87,North,0,0.0,0.0,65,0.00,,,0.00,WUHU216HW,2013-07-24 07:25:00,
2013-07-24 00:30:00,63.0,51.0,29.87,North,0,0.0,0.0,65,0.00,,,0.00,WUHU216HW,2013-07-24 07:30:00,
2013-07-24 00:35:00,62.6,51.1,29.87,North,0,0.0,0.0,66,0.00,,,0.00,WUHU216HW,2013-07-24 07:35:00,
2013-07-24 00:40:00,62.5,50.5,29.87,North,0,0.0,0.0,65,0.00,,,0.00,WUHU216HW,2013-07-24 07:40:00,
2013-07-24 00:45:00,62.1,50.6,29.87,North,0,0.0,0.0,66,0.00,,,0.00,WUHU216HW,2013-07-24 07:45:00,
2013-07-24 00:50:00,61.9,50.4,29.87,North,0,0.0,0.0,66,0.00,,,0.00,WUHU216HW,2013-07-24 07:50:00,
2013-07-24 00:55:00,61.6,50.1,29.87,North,0,0.0,0.0,66,0.00,,,0.00,WUHU216HW,2013-07-24 07:55:00,
2013-07-24 01:00:00,61.6,50.1,29.87,North,0,0.0,0.0,66,0.00,,,0.00,WUHU216HW,2013-07-24 08:00:00,
2013-07-24 01:06:00,61.4,50.0,29.86,North,0,0.0,0.0,66,0.00,,,0.00,WUHU216HW,2013-07-24 08:06:00,
2013-07-24 01:11:00,61.2,49.8,29.86,North,0,0.0,0.0,66,0.00,,,0.00,WUHU216HW,2013-07-24 08:11:00,
2013-07-24 01:16:00,61.0,49.2,29.86,North,0,0.0,0.0,65,0.00,,,0.00,WUHU216HW,2013-07-24 08:16:00,
2013-07-24 01:21:00,60.8,49.1,29.86,North,0,0.0,0.0,65,0.00,,,0.00,WUHU216HW,2013-07-24 08:21:00,
2013-07-24 01:26:00,60.7,48.9,29.86,North,0,0.0,0.0,65,0.00,,,0.00,WUHU216HW,2013-07-24 08:26:00,
2013-07-24 01:31:00,60.8,49.1,29.86,North,0,0.0,0.0,65,0.00,,,0.00,WUHU216HW,2013-07-24 08:31:00,
2013-07-24 01:36:00,61.0,49.2,29.86,North,0,0.0,0.0,65,0.00,,,0.00,WUHU216HW,2013-07-24 08:36:00,
2013-07-24 01:41:00,60.8,49.1,29.86,North,0,0.0,0.0,65,0.00,,,0.00,WUHU216HW,2013-07-24 08:41:00,
2013-07-24 01:46:00,60.8,49.1,29.86,North,0,0.0,0.0,65,0.00,,,0.00,WUHU216HW,2013-07-24 08:46:00,
2013-07-24 01:52:00,60.7,48.9,29.86,North,0,0.0,0.0,65,0.00,,,0.00,WUHU216HW,2013-07-24 08:52:00,
2013-07-24 01:57:00,60.5,48.7,29.86,North,0,0.0,0.0,65,0.00,,,0.00,WUHU216HW,2013-07-24 08:57:00,
2013-07-24 02:02:00,60.3,48.5,29.86,North,0,0.0,0.0,65,0.00,,,0.00,WUHU216HW,2013-07-24 09:02:00,
2013-07-24 02:07:00,60.1,48.3,29.86,North,0,0.0,0.0,65,0.00,,,0.00,WUHU216HW,2013-07-24 09:07:00,
2013-07-24 02:12:00,59.9,48.2,29.86,North,0,0.0,0.0,65,0.00,,,0.00,WUHU216HW,2013-07-24 09:12:00,
2013-07-24 02:17:00,59.8,48.0,29.86,North,0,0.0,0.0,65,0.00,,,0.00,WUHU216HW,2013-07-24 09:17:00,
2013-07-24 02:22:00,59.4,47.2,29.86,North,0,0.0,0.0,64,0.00,,,0.00,WUHU216HW,2013-07-24 09:22:00,
2013-07-24 02:27:00,59.2,47.4,29.86,North,0,0.0,0.0,65,0.00,,,0.00,WUHU216HW,2013-07-24 09:27:00,
2013-07-24 02:32:00,59.2,47.0,29.87,North,0,0.0,0.0,64,0.00,,,0.00,WUHU216HW,2013-07-24 09:32:00,
2013-07-24 02:37:00,59.4,47.2,29.87,North,0,0.0,0.0,64,0.00,,,0.00,WUHU216HW,2013-07-24 09:37:00,
2013-07-24 02:42:00,59.6,47.0,29.87,North,0,0.0,0.0,63,0.00,,,0.00,WUHU216HW,2013-07-24 09:42:00,
2013-07-24 02:47:00,59.8,46.7,29.87,North,0,0.0,0.0,62,0.00,,,0.00,WUHU216HW,2013-07-24 09:47:00,
2013-07-24 02:52:00,59.9,47.4,29.88,North,0,0.0,0.0,63,0.00,,,0.00,WUHU216HW,2013-07-24 09:52:00,
2013-07-24 02:57:00,59.9,47.7,29.88,North,0,0.0,0.0,64,0.00,,,0.00,WUHU216HW,2013-07-24 09:57:00,
2013-07-24 03:02:00,59.9,47.7,29.88,North,0,0.0,0.0,64,0.00,,,0.00,WUHU216HW,2013-07-24 10:02:00,
2013-07-24 03:07:00,59.8,47.5,29.88,North,0,0.0,0.0,64,0.00,,,0.00,WUHU216HW,2013-07-24 10:07:00,
2013-07-24 03:12:00,59.4,47.2,29.88,North,0,0.0,0.0,64,0.00,,,0.00,WUHU216HW,2013-07-24 10:12:00,
2013-07-24 03:18:00,59.2,46.6,29.88,North,0,0.0,0.0,63,0.00,,,0.00,WUHU216HW,2013-07-24 10:18:00,
2013-07-24 03:23:00,59.0,46.8,29.88,North,0,0.0,0.0,64,0.00,,,0.00,WUHU216HW,2013-07-24 10:23:00,
2013-07-24 03:28:00,59.0,46.8,29.88,North,0,0.0,0.0,64,0.00,,,0.00,WUHU216HW,2013-07-24 10:28:00,
2013-07-24 03:33:00,58.9,46.7,29.88,North,0,0.0,0.0,64,0.00,,,0.00,WUHU216HW,2013-07-24 10:33:00,
2013-07-24 03:38:00,58.7,46.5,29.87,North,0,0.0,0.0,64,0.00,,,0.00,WUHU216HW,2013-07-24 10:38:00,
2013-07-24 03:43:00,58.7,46.5,29.87,North,0,0.0,0.0,64,0.00,,,0.00,WUHU216HW,2013-07-24 10:43:00,
2013-07-24 03:48:00,58.7,46.5,29.88,North,0,0.0,0.0,64,0.00,,,0.00,WUHU216HW,2013-07-24 10:48:00,
2013-07-24 03:53:00,58.5,45.9,29.88,North,0,0.0,0.0,63,0.00,,,0.00,WUHU216HW,2013-07-24 10:53:00,
2013-07-24 03:58:00,58.5,45.6,29.88,North,0,0.0,0.0,62,0.00,,,0.00,WUHU216HW,2013-07-24 10:58:00,
2013-07-24 04:03:00,58.5,45.6,29.88,North,0,0.0,0.0,62,0.00,,,0.00,WUHU216HW,2013-07-24 11:03:00,
2013-07-24 04:08:00,58.5,45.6,29.88,North,0,0.0,0.0,62,0.00,,,0.00,WUHU216HW,2013-07-24 11:08:00,
2013-07-24 04:13:00,58.3,44.9,29.88,North,0,0.0,0.0,61,0.00,,,0.00,WUHU216HW,2013-07-24 11:13:00,
2013-07-24 04:18:00,58.1,44.4,29.88,North,0,0.0,0.0,60,0.00,,,0.00,WUHU216HW,2013-07-24 11:18:00,
2013-07-24 04:24:00,58.0,44.7,29.88,North,0,0.0,0.0,61,0.00,,,0.00,WUHU216HW,2013-07-24 11:24:00,
2013-07-24 04:29:00,57.8,44.5,29.88,North,0,0.0,0.0,61,0.00,,,0.00,WUHU216HW,2013-07-24 11:29:00,
2013-07-24 04:34:00,57.8,43.6,29.88,North,0,0.0,0.0,59,0.00,,,0.00,WUHU216HW,2013-07-24 11:34:00,
2013-07-24 04:39:00,57.6,43.9,29.88,North,0,0.0,0.0,60,0.00,,,0.00,WUHU216HW,2013-07-24 11:39:00,
2013-07-24 04:44:00,57.6,43.4,29.88,North,0,0.0,0.0,59,0.00,,,0.00,WUHU216HW,2013-07-24 11:44:00,
2013-07-24 04:49:00,57.4,43.3,29.88,North,0,0.0,0.0,59,0.00,,,0.00,WUHU216HW,2013-07-24 11:49:00,
2013-07-24 04:54:00,57.2,43.1,29.88,North,0,0.0,0.0,59,0.00,,,0.00,WUHU216HW,2013-07-24 11:54:00,
2013-07-24 04:59:00,57.2,42.7,29.88,North,0,0.0,0.0,58,0.00,,,0.00,WUHU216HW,2013-07-24 11:59:00,
2013-07-24 05:04:00,57.2,42.7,29.88,North,0,0.0,0.0,58,0.00,,,0.00,WUHU216HW,2013-07-24 12:04:00,
2013-07-24 05:09:00,57.1,42.5,29.88,North,0,0.0,0.0,58,0.00,,,0.00,WUHU216HW,2013-07-24 12:09:00,
2013-07-24 05:14:00,57.1,41.9,29.88,North,0,0.0,0.0,57,0.00,,,0.00,WUHU216HW,2013-07-24 12:14:00,
2013-07-24 05:19:00,57.1,42.5,29.88,North,0,0.0,0.0,58,0.00,,,0.00,WUHU216HW,2013-07-24 12:19:00,
2013-07-24 05:24:00,56.9,42.3,29.88,North,0,0.0,0.0,58,0.00,,,0.00,WUHU216HW,2013-07-24 12:24:00,
2013-07-24 05:29:00,56.9,42.3,29.88,North,0,0.0,0.0,58,0.00,,,0.00,WUHU216HW,2013-07-24 12:29:00,
2013-07-24 05:34:00,56.9,42.3,29.88,North,0,0.0,0.0,58,0.00,,,0.00,WUHU216HW,2013-07-24 12:34:00,
2013-07-24 05:39:00,56.9,42.3,29.88,North,0,0.0,0.0,58,0.00,,,0.00,WUHU216HW,2013-07-24 12:39:00,
2013-07-24 05:45:00,56.9,42.3,29.88,North,0,0.0,0.0,58,0.00,,,0.00,WUHU216HW,2013-07-24 12:45:00,
2013-07-24 05:50:00,56.9,42.3,29.88,North,0,0.0,0.0,58,0.00,,,0.00,WUHU216HW,2013-07-24 12:50:00,
2013-07-24 05:55:00,56.9,42.3,29.88,North,0,0.0,0.0,58,0.00,,,0.00,WUHU216HW,2013-07-24 12:55:00,
2013-07-24 06:00:00,56.9,42.8,29.88,North,0,0.0,0.0,59,0.00,,,0.00,WUHU216HW,2013-07-24 13:00:00,
2013-07-24 06:05:00,56.9,42.8,29.88,North,0,0.0,0.0,59,0.00,,,0.00,WUHU216HW,2013-07-24 13:05:00,
2013-07-24 06:10:00,56.7,42.6,29.88,North,0,0.0,0.0,59,0.00,,,0.00,WUHU216HW,2013-07-24 13:10:00,
2013-07-24 06:15:00,56.7,42.1,29.89,North,0,0.0,0.0,58,0.00,,,0.00,WUHU216HW,2013-07-24 13:15:00,
2013-07-24 06:20:00,56.5,42.4,29.89,North,0,0.0,0.0,59,0.00,,,0.00,WUHU216HW,2013-07-24 13:20:00,
2013-07-24 06:25:00,56.5,42.0,29.89,North,0,0.0,0.0,58,0.00,,,0.00,WUHU216HW,2013-07-24 13:25:00,
2013-07-24 06:30:00,56.7,41.6,29.89,North,0,0.0,0.0,57,0.00,,,0.00,WUHU216HW,2013-07-24 13:30:00,
2013-07-24 06:35:00,56.7,41.6,29.89,North,0,0.0,0.0,57,0.00,,,0.00,WUHU216HW,2013-07-24 13:35:00,
2013-07-24 06:40:00,56.9,41.8,29.89,North,0,0.0,0.0,57,0.00,,,0.00,WUHU216HW,2013-07-24 13:40:00,
2013-07-24 06:45:00,56.9,41.8,29.89,North,0,0.0,0.0,57,0.00,,,0.00,WUHU216HW,2013-07-24 13:45:00,
2013-07-24 06:51:00,56.9,41.8,29.89,North,0,0.0,0.0,57,0.00,,,0.00,WUHU216HW,2013-07-24 13:51:00,
2013-07-24 06:56:00,57.1,41.5,29.89,North,0,0.0,0.0,56,0.00,,,0.00,WUHU216HW,2013-07-24 13:56:00,
2013-07-24 07:01:00,57.2,41.2,29.89,North,0,0.0,0.0,55,0.00,,,0.00,WUHU216HW,2013-07-24 14:01:00,
2013-07-24 07:06:00,57.2,40.8,29.89,North,0,0.0,0.0,54,0.00,,,0.00,WUHU216HW,2013-07-24 14:06:00,
2013-07-24 07:11:00,57.6,41.0,29.89,North,0,0.0,0.0,54,0.00,,,0.00,WUHU216HW,2013-07-24 14:11:00,
2013-07-24 07:16:00,57.8,41.2,29.89,North,0,0.0,0.0,54,0.00,,,0.00,WUHU216HW,2013-07-24 14:16:00,
2013-07-24 07:21:00,58.1,41.6,29.89,North,0,0.0,0.0,54,0.00,,,0.00,WUHU216HW,2013-07-24 14:21:00,
2013-07-24 07:26:00,58.1,41.6,29.89,North,0,0.0,0.0,54,0.00,,,0.00,WUHU216HW,2013-07-24 14:26:00,
2013-07-24 07:31:00,58.1,41.6,29.89,North,0,0.0,0.0,54,0.00,,,0.00,WUHU216HW,2013-07-24 14:31:00,
2013-07-24 08:00:00,62.1,47.2,29.89,North,0,0.0,0.0,58,0.00,,,0.00,WUHU216HW,2013-07-24 15:00:00,
2013-07-24 08:05:00,62.6,48.6,29.89,North,0,0.0,0.0,60,0.00,,,0.00,WUHU216HW,2013-07-24 15:05:00,
2013-07-24 08:10:00,63.0,49.0,29.89,North,0,0.0,0.0,60,0.00,,,0.00,WUHU216HW,2013-07-24 15:10:00,
2013-07-24 08:15:00,63.7,49.6,29.89,North,0,0.0,0.0,60,0.00,,,0.00,WUHU216HW,2013-07-24 15:15:00,
2013-07-24 08:20:00,64.1,50.3,29.89,North,0,0.0,0.0,61,0.00,,,0.00,WUHU216HW,2013-07-24 15:20:00,
2013-07-24 08:25:00,64.6,50.9,29.89,North,0,0.0,0.0,61,0.00,,,0.00,WUHU216HW,2013-07-24 15:25:00,
2013-07-24 08:30:00,65.2,51.8,29.89,North,0,0.0,0.0,62,0.00,,,0.00,WUHU216HW,2013-07-24 15:30:00,
2013-07-24 08:35:00,65.5,52.1,29.89,North,0,0.0,0.0,62,0.00,,,0.00,WUHU216HW,2013-07-24 15:35:00,
2013-07-24 08:40:00,65.9,52.5,29.89,North,0,0.0,0.0,62,0.00,,,0.00,WUHU216HW,2013-07-24 15:40:00,
2013-07-24 08:46:00,66.6,53.2,29.89,North,0,0.0,0.0,62,0.00,,,0.00,WUHU216HW,2013-07-24 15:46:00,
2013-07-24 08:51:00,67.1,53.6,29.89,North,0,0.0,0.0,62,0.00,,,0.00,WUHU216HW,2013-07-24 15:51:00,
2013-07-24 08:56:00,67.5,54.5,29.89,North,0,0.0,0.0,63,0.00,,,0.00,WUHU216HW,2013-07-24 15:56:00,
2013-07-24 09:01:00,68.0,54.9,29.89,North,0,0.0,0.0,63,0.00,,,0.00,WUHU216HW,2013-07-24 16:01:00,
2013-07-24 09:06:00,68.8,55.6,29.89,North,0,0.0,0.0,63,0.00,,,0.00,WUHU216HW,2013-07-24 16:06:00,
2013-07-24 09:11:00,69.3,56.6,29.89,North,0,0.0,0.0,64,0.00,,,0.00,WUHU216HW,2013-07-24 16:11:00,
2013-07-24 09:16:00,69.7,56.9,29.89,North,0,0.0,0.0,64,0.00,,,0.00,WUHU216HW,2013-07-24 16:16:00,
2013-07-24 09:22:00,70.4,57.6,29.89,North,0,0.0,0.0,64,0.00,,,0.00,WUHU216HW,2013-07-24 16:22:00,
2013-07-24 09:27:00,70.9,58.2,29.89,North,0,0.0,0.0,64,0.00,,,0.00,WUHU216HW,2013-07-24 16:27:00,
2013-07-24 09:32:00,71.1,58.3,29.89,North,0,0.0,0.0,64,0.00,,,0.00,WUHU216HW,2013-07-24 16:32:00,
2013-07-24 09:37:00,71.6,58.8,29.89,North,0,0.0,0.0,64,0.00,,,0.00,WUHU216HW,2013-07-24 16:37:00,
2013-07-24 09:42:00,72.2,59.3,29.89,North,0,0.0,0.0,64,0.00,,,0.00,WUHU216HW,2013-07-24 16:42:00,
2013-07-24 09:47:00,72.7,59.8,29.89,North,0,0.0,0.0,64,0.00,,,0.00,WUHU216HW,2013-07-24 16:47:00,
2013-07-24 09:52:00,72.9,59.9,29.88,North,0,0.0,0.0,64,0.00,,,0.00,WUHU216HW,2013-07-24 16:52:00,
2013-07-24 09:57:00,73.4,60.5,29.88,North,0,0.0,0.0,64,0.00,,,0.00,WUHU216HW,2013-07-24 16:57:00,
2013-07-24 10:02:00,74.2,60.8,29.88,North,0,0.0,0.0,63,0.00,,,0.00,WUHU216HW,2013-07-24 17:02:00,
2013-07-24 10:07:00,74.7,60.9,29.88,North,0,0.0,0.0,62,0.00,,,0.00,WUHU216HW,2013-07-24 17:07:00,
2013-07-24 10:12:00,75.2,61.4,29.88,North,0,0.0,0.0,62,0.00,,,0.00,WUHU216HW,2013-07-24 17:12:00,
2013-07-24 10:17:00,75.8,61.8,29.88,North,0,0.0,0.0,62,0.00,,,0.00,WUHU216HW,2013-07-24 17:17:00,
2013-07-24 10:22:00,76.9,62.4,29.88,North,0,0.0,0.0,61,0.00,,,0.00,WUHU216HW,2013-07-24 17:22:00,
2013-07-24 10:27:00,77.4,62.5,29.88,North,0,0.0,0.0,60,0.00,,,0.00,WUHU216HW,2013-07-24 17:27:00,
2013-07-24 10:32:00,77.8,62.8,29.88,North,0,0.0,0.0,60,0.00,,,0.00,WUHU216HW,2013-07-24 17:32:00,
2013-07-24 10:37:00,78.1,62.6,29.88,North,0,0.0,0.0,59,0.00,,,0.00,WUHU216HW,2013-07-24 17:37:00,
2013-07-24 10:43:00,78.5,62.0,29.88,North,0,0.0,0.0,57,0.00,,,0.00,WUHU216HW,2013-07-24 17:43:00,
2013-07-24 10:48:00,78.8,61.8,29.88,North,0,0.0,0.0,56,0.00,,,0.00,WUHU216HW,2013-07-24 17:48:00,
2013-07-24 10:53:00,79.0,61.5,29.88,North,0,0.0,0.0,55,0.00,,,0.00,WUHU216HW,2013-07-24 17:53:00,
2013-07-24 10:58:00,79.9,61.7,29.88,North,0,0.0,0.0,54,0.00,,,0.00,WUHU216HW,2013-07-24 17:58:00,
2013-07-24 11:03:00,80.6,62.4,29.87,North,0,0.0,0.0,54,0.00,,,0.00,WUHU216HW,2013-07-24 18:03:00,
2013-07-24 11:08:00,80.6,62.4,29.87,North,0,0.0,0.0,54,0.00,,,0.00,WUHU216HW,2013-07-24 18:08:00,
2013-07-24 11:13:00,81.0,61.7,29.87,North,0,0.0,0.0,52,0.00,,,0.00,WUHU216HW,2013-07-24 18:13:00,
2013-07-24 11:18:00,81.5,62.6,29.87,North,0,0.0,0.0,53,0.00,,,0.00,WUHU216HW,2013-07-24 18:18:00,
2013-07-24 11:23:00,81.9,62.5,29.88,North,0,0.0,0.0,52,0.00,,,0.00,WUHU216HW,2013-07-24 18:23:00,
2013-07-24 11:28:00,82.4,60.7,29.88,North,0,0.0,0.0,48,0.00,,,0.00,WUHU216HW,2013-07-24 18:28:00,
2013-07-24 11:33:00,82.8,62.3,29.88,North,0,0.0,0.0,50,0.00,,,0.00,WUHU216HW,2013-07-24 18:33:00,
2013-07-24 11:38:00,83.5,63.0,29.88,North,0,0.0,0.0,50,0.00,,,0.00,WUHU216HW,2013-07-24 18:38:00,
2013-07-24 11:43:00,84.2,62.5,29.87,North,0,0.0,0.0,48,0.00,,,0.00,WUHU216HW,2013-07-24 18:43:00,
2013-07-24 11:48:00,84.8,64.2,29.87,North,0,0.0,0.0,50,0.00,,,0.00,WUHU216HW,2013-07-24 18:48:00,
2013-07-24 11:54:00,84.8,63.5,29.87,North,0,0.0,0.0,49,0.00,,,0.00,WUHU216HW,2013-07-24 18:54:00,
2013-07-24 11:59:00,85.1,62.6,29.87,North,0,0.0,0.0,47,0.00,,,0.00,WUHU216HW,2013-07-24 18:59:00,
2013-07-24 12:04:00,85.7,63.7,29.87,North,0,0.0,0.0,48,0.00,,,0.00,WUHU216HW,2013-07-24 19:04:00,
2013-07-24 12:09:00,85.9,62.6,29.87,North,0,0.0,0.0,46,0.00,,,0.00,WUHU216HW,2013-07-24 19:09:00,
2013-07-24 12:14:00,86.0,62.2,29.87,North,0,0.0,0.0,45,0.00,,,0.00,WUHU216HW,2013-07-24 19:14:00,
2013-07-24 12:19:00,86.6,62.0,29.87,North,0,0.0,0.0,44,0.00,,,0.00,WUHU216HW,2013-07-24 19:19:00,
2013-07-24 12:24:00,87.1,60.7,29.87,North,0,0.0,0.0,41,0.00,,,0.00,WUHU216HW,2013-07-24 19:24:00,
2013-07-24 12:29:00,87.3,62.1,29.87,North,0,0.0,0.0,43,0.00,,,0.00,WUHU216HW,2013-07-24 19:29:00,
2013-07-24 12:30:00,87.3,63.4,29.87,North,0,0.0,0.0,45,0.00,,,0.00,WUHU216HW,2013-07-24 19:30:00,
2013-07-24 12:37:00,87.5,63.5,29.87,North,0,0.0,0.0,45,0.00,,,0.00,WUHU216HW,2013-07-24 19:37:00,
2013-07-24 12:42:00,87.7,61.7,29.87,North,0,0.0,0.0,42,0.00,,,0.00,WUHU216HW,2013-07-24 19:42:00,
2013-07-24 12:48:00,88.0,62.7,29.86,North,0,0.0,0.0,43,0.00,,,0.00,WUHU216HW,2013-07-24 19:48:00,
2013-07-24 13:03:00,88.0,62.7,29.87,North,0,0.0,0.0,43,0.00,,,0.00,WUHU216HW,2013-07-24 20:03:00,
2013-07-24 13:08:00,88.7,61.4,29.86,North,0,0.0,0.0,40,0.00,,,0.00,WUHU216HW,2013-07-24 20:08:00,
2013-07-24 13:13:00,88.9,61.6,29.86,North,0,0.0,0.0,40,0.00,,,0.00,WUHU216HW,2013-07-24 20:13:00,
2013-07-24 13:18:00,89.3,61.0,29.86,North,0,0.0,0.0,39,0.00,,,0.00,WUHU216HW,2013-07-24 20:18:00,
2013-07-24 13:23:00,89.6,62.7,29.86,North,0,0.0,0.0,41,0.00,,,0.00,WUHU216HW,2013-07-24 20:23:00,
2013-07-24 13:28:00,89.5,61.9,29.86,North,0,0.0,0.0,40,0.00,,,0.00,WUHU216HW,2013-07-24 20:28:00,
2013-07-24 13:33:00,89.5,61.2,29.86,North,0,0.0,0.0,39,0.00,,,0.00,WUHU216HW,2013-07-24 20:33:00,
2013-07-24 13:38:00,89.6,62.1,29.86,North,0,0.0,0.0,40,0.00,,,0.00,WUHU216HW,2013-07-24 20:38:00,
2013-07-24 13:43:00,90.0,62.5,29.86,North,0,0.0,0.0,40,0.00,,,0.00,WUHU216HW,2013-07-24 20:43:00,
2013-07-24 13:49:00,90.7,60.0,29.86,North,0,0.0,0.0,36,0.00,,,0.00,WUHU216HW,2013-07-24 20:49:00,
2013-07-24 13:54:00,90.9,60.8,29.86,North,0,0.0,0.0,37,0.00,,,0.00,WUHU216HW,2013-07-24 20:54:00,
2013-07-24 13:59:00,91.1,61.8,29.86,North,0,0.0,0.0,38,0.00,,,0.00,WUHU216HW,2013-07-24 20:59:00,
2013-07-24 14:04:00,91.4,59.8,29.86,North,0,0.0,0.0,35,0.00,,,0.00,WUHU216HW,2013-07-24 21:04:00,
2013-07-24 14:09:00,91.4,62.9,29.85,North,0,0.0,0.0,39,0.00,,,0.00,WUHU216HW,2013-07-24 21:09:00,
2013-07-24 14:14:00,91.4,63.7,29.85,North,0,0.0,0.0,40,0.00,,,0.00,WUHU216HW,2013-07-24 21:14:00,
2013-07-24 14:19:00,91.3,62.0,29.85,North,0,0.0,0.0,38,0.00,,,0.00,WUHU216HW,2013-07-24 21:19:00,
2013-07-24 14:24:00,90.9,61.7,29.84,North,0,0.0,0.0,38,0.00,,,0.00,WUHU216HW,2013-07-24 21:24:00,
2013-07-24 14:29:00,90.7,63.1,29.84,North,0,0.0,0.0,40,0.00,,,0.00,WUHU216HW,2013-07-24 21:29:00,
2013-07-24 14:34:00,91.1,61.8,29.84,North,0,0.0,0.0,38,0.00,,,0.00,WUHU216HW,2013-07-24 21:34:00,
2013-07-24 14:39:00,91.6,62.3,29.84,North,0,0.0,0.0,38,0.00,,,0.00,WUHU216HW,2013-07-24 21:39:00,
2013-07-24 14:44:00,92.2,60.4,29.84,North,0,0.0,0.0,35,0.00,,,0.00,WUHU216HW,2013-07-24 21:44:00,
2013-07-24 14:49:00,92.5,61.5,29.84,North,0,0.0,0.0,36,0.00,,,0.00,WUHU216HW,2013-07-24 21:49:00,
2013-07-24 14:55:00,92.5,61.5,29.84,North,0,0.0,0.0,36,0.00,,,0.00,WUHU216HW,2013-07-24 21:55:00,
2013-07-24 15:00:00,92.9,61.8,29.84,North,0,0.0,0.0,36,0.00,,,0.00,WUHU216HW,2013-07-24 22:00:00,
2013-07-24 15:05:00,92.9,61.8,29.84,North,0,0.0,0.0,36,0.00,,,0.00,WUHU216HW,2013-07-24 22:05:00,
2013-07-24 15:10:00,92.7,61.7,29.84,North,0,0.0,0.0,36,0.00,,,0.00,WUHU216HW,2013-07-24 22:10:00,
2013-07-24 15:15:00,92.5,60.7,29.84,North,0,0.0,0.0,35,0.00,,,0.00,WUHU216HW,2013-07-24 22:15:00,
2013-07-24 15:20:00,92.9,59.4,29.84,North,0,0.0,0.0,33,0.00,,,0.00,WUHU216HW,2013-07-24 22:20:00,
2013-07-24 15:25:00,93.2,61.3,29.84,North,0,0.0,0.0,35,0.00,,,0.00,WUHU216HW,2013-07-24 22:25:00,
2013-07-24 15:30:00,93.4,60.7,29.84,North,0,0.0,0.0,34,0.00,,,0.00,WUHU216HW,2013-07-24 22:30:00,
2013-07-24 15:35:00,93.2,61.3,29.84,North,0,0.0,0.0,35,0.00,,,0.00,WUHU216HW,2013-07-24 22:35:00,
2013-07-24 15:40:00,93.1,59.5,29.84,North,0,0.0,0.0,33,0.00,,,0.00,WUHU216HW,2013-07-24 22:40:00,
2013-07-24 15:45:00,93.2,60.5,29.84,North,0,0.0,0.0,34,0.00,,,0.00,WUHU216HW,2013-07-24 22:45:00,
2013-07-24 15:50:00,93.1,59.5,29.84,North,0,0.0,0.0,33,0.00,,,0.00,WUHU216HW,2013-07-24 22:50:00,
2013-07-24 15:55:00,92.9,59.4,29.83,North,0,0.0,0.0,33,0.00,,,0.00,WUHU216HW,2013-07-24 22:55:00,
2013-07-24 16:00:00,92.9,57.8,29.83,North,0,0.0,0.0,31,0.00,,,0.00,WUHU216HW,2013-07-24 23:00:00,
2013-07-24 16:05:00,93.1,57.9,29.83,North,0,0.0,0.0,31,0.00,,,0.00,WUHU216HW,2013-07-24 23:05:00,
2013-07-24 16:11:00,93.2,59.7,29.83,North,0,0.0,0.0,33,0.00,,,0.00,WUHU216HW,2013-07-24 23:11:00,
2013-07-24 16:16:00,93.2,58.9,29.83,North,0,0.0,0.0,32,0.00,,,0.00,WUHU216HW,2013-07-24 23:16:00,
2013-07-24 16:21:00,93.2,57.2,29.83,North,0,0.0,0.0,30,0.00,,,0.00,WUHU216HW,2013-07-24 23:21:00,
2013-07-24 16:26:00,92.9,58.6,29.83,North,0,0.0,0.0,32,0.00,,,0.00,WUHU216HW,2013-07-24 23:26:00,
2013-07-24 16:31:00,93.1,59.5,29.82,North,0,0.0,0.0,33,0.00,,,0.00,WUHU216HW,2013-07-24 23:31:00,
2013-07-24 16:36:00,93.4,58.2,29.82,North,0,0.0,0.0,31,0.00,,,0.00,WUHU216HW,2013-07-24 23:36:00,
2013-07-24 16:41:00,93.4,59.9,29.82,North,0,0.0,0.0,33,0.00,,,0.00,WUHU216HW,2013-07-24 23:41:00,
2013-07-24 16:46:00,93.2,60.5,29.82,North,0,0.0,0.0,34,0.00,,,0.00,WUHU216HW,2013-07-24 23:46:00,
2013-07-24 16:51:00,93.2,59.7,29.82,North,0,0.0,0.0,33,0.00,,,0.00,WUHU216HW,2013-07-24 23:51:00,
2013-07-24 16:56:00,93.2,59.7,29.82,North,0,0.0,0.0,33,0.00,,,0.00,WUHU216HW,2013-07-24 23:56:00,
2013-07-24 17:01:00,92.9,59.4,29.82,North,0,0.0,0.0,33,0.00,,,0.00,WUHU216HW,2013-07-25 00:01:00,
2013-07-24 17:06:00,93.1,60.3,29.82,North,0,0.0,0.0,34,0.00,,,0.00,WUHU216HW,2013-07-25 00:06:00,
2013-07-24 17:11:00,92.9,59.4,29.82,North,0,0.0,0.0,33,0.00,,,0.00,WUHU216HW,2013-07-25 00:11:00,
2013-07-24 17:16:00,92.9,57.8,29.82,North,0,0.0,0.0,31,0.00,,,0.00,WUHU216HW,2013-07-25 00:16:00,
2013-07-24 17:21:00,93.1,59.5,29.82,North,0,0.0,0.0,33,0.00,,,0.00,WUHU216HW,2013-07-25 00:21:00,
2013-07-24 17:27:00,92.9,60.2,29.82,North,0,0.0,0.0,34,0.00,,,0.00,WUHU216HW,2013-07-25 00:27:00,
2013-07-24 17:32:00,93.1,61.1,29.82,North,0,0.0,0.0,35,0.00,,,0.00,WUHU216HW,2013-07-25 00:32:00,
2013-07-24 17:37:00,92.9,60.2,29.82,North,0,0.0,0.0,34,0.00,,,0.00,WUHU216HW,2013-07-25 00:37:00,
2013-07-24 17:42:00,92.9,61.0,29.82,North,0,0.0,0.0,35,0.00,,,0.00,WUHU216HW,2013-07-25 00:42:00,
2013-07-24 17:47:00,93.1,60.3,29.82,North,0,0.0,0.0,34,0.00,,,0.00,WUHU216HW,2013-07-25 00:47:00,
2013-07-24 17:52:00,93.2,61.3,29.82,North,0,0.0,0.0,35,0.00,,,0.00,WUHU216HW,2013-07-25 00:52:00,
2013-07-24 17:57:00,93.1,61.9,29.82,North,0,0.0,0.0,36,0.00,,,0.00,WUHU216HW,2013-07-25 00:57:00,
2013-07-24 18:02:00,92.9,63.4,29.82,North,0,0.0,0.0,38,0.00,,,0.00,WUHU216HW,2013-07-25 01:02:00,
2013-07-24 18:07:00,92.2,61.2,29.82,North,0,0.0,0.0,36,0.00,,,0.00,WUHU216HW,2013-07-25 01:07:00,
2013-07-24 18:12:00,92.0,62.7,29.82,North,0,0.0,0.0,38,0.00,,,0.00,WUHU216HW,2013-07-25 01:12:00,
2013-07-24 18:17:00,91.6,62.3,29.82,North,0,0.0,0.0,38,0.00,,,0.00,WUHU216HW,2013-07-25 01:17:00,
2013-07-24 18:22:00,91.4,62.9,29.82,North,0,0.0,0.0,39,0.00,,,0.00,WUHU216HW,2013-07-25 01:22:00,
2013-07-24 18:28:00,91.1,62.7,29.82,North,0,0.0,0.0,39,0.00,,,0.00,WUHU216HW,2013-07-25 01:28:00,
2013-07-24 18:33:00,90.9,62.5,29.82,North,0,0.0,0.0,39,0.00,,,0.00,WUHU216HW,2013-07-25 01:33:00,
2013-07-24 18:38:00,90.7,63.1,29.82,North,0,0.0,0.0,40,0.00,,,0.00,WUHU216HW,2013-07-25 01:38:00,
2013-07-24 18:43:00,90.5,61.3,29.82,North,0,0.0,0.0,38,0.00,,,0.00,WUHU216HW,2013-07-25 01:43:00,
2013-07-24 18:48:00,90.2,60.2,29.82,North,0,0.0,0.0,37,0.00,,,0.00,WUHU216HW,2013-07-25 01:48:00,
2013-07-24 18:53:00,89.6,60.5,29.82,North,0,0.0,0.0,38,0.00,,,0.00,WUHU216HW,2013-07-25 01:53:00,
2013-07-24 18:58:00,89.1,60.0,29.83,North,0,0.0,0.0,38,0.00,,,0.00,WUHU216HW,2013-07-25 01:58:00,
2013-07-24 19:03:00,88.9,60.0,29.83,North,0,0.0,0.0,38,0.00,,,0.00,WUHU216HW,2013-07-25 02:03:00,
2013-07-24 19:08:00,88.6,59.7,29.83,North,0,0.0,0.0,38,0.00,,,0.00,WUHU216HW,2013-07-25 02:08:00,
2013-07-24 19:13:00,88.2,59.3,29.83,North,0,0.0,0.0,38,0.00,,,0.00,WUHU216HW,2013-07-25 02:13:00,
2013-07-24 19:18:00,87.5,59.5,29.83,North,0,0.0,0.0,39,0.00,,,0.00,WUHU216HW,2013-07-25 02:18:00,
2013-07-24 19:23:00,87.1,59.2,29.83,North,0,0.0,0.0,39,0.00,,,0.00,WUHU216HW,2013-07-25 02:23:00,
2013-07-24 19:28:00,86.4,58.6,29.83,North,0,0.0,0.0,39,0.00,,,0.00,WUHU216HW,2013-07-25 02:28:00,
2013-07-24 19:33:00,85.5,57.8,29.83,North,0,0.0,0.0,39,0.00,,,0.00,WUHU216HW,2013-07-25 02:33:00,
2013-07-24 19:39:00,84.6,57.8,29.83,North,0,0.0,0.0,40,0.00,,,0.00,WUHU216HW,2013-07-25 02:39:00,
2013-07-24 19:44:00,84.1,57.9,29.83,North,0,0.0,0.0,41,0.00,,,0.00,WUHU216HW,2013-07-25 02:44:00,
2013-07-24 19:49:00,83.7,57.6,29.83,North,0,0.0,0.0,41,0.00,,,0.00,WUHU216HW,2013-07-25 02:49:00,
2013-07-24 19:54:00,83.2,57.1,29.83,North,0,0.0,0.0,41,0.00,,,0.00,WUHU216HW,2013-07-25 02:54:00,
2013-07-24 19:59:00,82.6,57.2,29.83,North,0,0.0,0.0,42,0.00,,,0.00,WUHU216HW,2013-07-25 02:59:00,
2013-07-24 20:04:00,82.1,56.7,29.83,North,0,0.0,0.0,42,0.00,,,0.00,WUHU216HW,2013-07-25 03:04:00,
2013-07-24 20:09:00,81.5,56.3,29.83,North,0,0.0,0.0,42,0.00,,,0.00,WUHU216HW,2013-07-25 03:09:00,
2013-07-24 20:14:00,81.0,56.3,29.84,North,0,0.0,0.0,43,0.00,,,0.00,WUHU216HW,2013-07-25 03:14:00,
2013-07-24 20:20:00,80.3,56.4,29.83,North,0,0.0,0.0,44,0.00,,,0.00,WUHU216HW,2013-07-25 03:20:00,
2013-07-24 20:25:00,79.9,56.0,29.84,North,0,0.0,0.0,44,0.00,,,0.00,WUHU216HW,2013-07-25 03:25:00,
2013-07-24 20:30:00,79.6,55.6,29.84,North,0,0.0,0.0,44,0.00,,,0.00,WUHU216HW,2013-07-25 03:30:00,
2013-07-24 20:35:00,79.2,56.0,29.84,North,0,0.0,0.0,45,0.00,,,0.00,WUHU216HW,2013-07-25 03:35:00,
2013-07-24 20:40:00,78.5,55.3,29.84,North,0,0.0,0.0,45,0.00,,,0.00,WUHU216HW,2013-07-25 03:40:00,
2013-07-24 20:45:00,77.9,55.5,29.84,North,0,0.0,0.0,46,0.00,,,0.00,WUHU216HW,2013-07-25 03:45:00,
2013-07-24 20:50:00,77.4,55.5,29.84,North,0,0.0,0.0,47,0.00,,,0.00,WUHU216HW,2013-07-25 03:50:00,
2013-07-24 20:55:00,76.9,55.7,29.84,North,0,0.0,0.0,48,0.00,,,0.00,WUHU216HW,2013-07-25 03:55:00,
2013-07-24 21:01:00,76.3,55.2,29.84,North,0,0.0,0.0,48,0.00,,,0.00,WUHU216HW,2013-07-25 04:01:00,
2013-07-24 21:02:00,76.1,55.0,29.84,North,0,0.0,0.0,48,0.00,,,0.00,WUHU216HW,2013-07-25 04:02:00,
2013-07-24 21:05:00,76.0,54.9,29.84,North,0,0.0,0.0,48,0.00,,,0.00,WUHU216HW,2013-07-25 04:05:00,
2013-07-24 21:10:00,75.2,54.8,29.84,North,0,0.0,0.0,49,0.00,,,0.00,WUHU216HW,2013-07-25 04:10:00,
2013-07-24 21:15:00,75.1,54.6,29.84,North,0,0.0,0.0,49,0.00,,,0.00,WUHU216HW,2013-07-25 04:15:00,
2013-07-24 21:20:00,74.5,54.7,29.84,North,0,0.0,0.0,50,0.00,,,0.00,WUHU216HW,2013-07-25 04:20:00,
2013-07-24 21:25:00,74.0,54.7,29.85,North,0,0.0,0.0,51,0.00,,,0.00,WUHU216HW,2013-07-25 04:25:00,
2013-07-24 21:30:00,73.4,54.6,29.85,North,0,0.0,0.0,52,0.00,,,0.00,WUHU216HW,2013-07-25 04:30:00,
2013-07-24 21:35:00,72.7,54.6,29.85,North,0,0.0,0.0,53,0.00,,,0.00,WUHU216HW,2013-07-25 04:35:00,
2013-07-24 21:40:00,72.4,54.7,29.85,North,0,0.0,0.0,54,0.00,,,0.00,WUHU216HW,2013-07-25 04:40:00,
2013-07-24 21:45:00,72.4,54.7,29.85,North,0,0.0,0.0,54,0.00,,,0.00,WUHU216HW,2013-07-25 04:45:00,
2013-07-24 21:51:00,72.0,54.4,29.85,North,0,0.0,0.0,54,0.00,,,0.00,WUHU216HW,2013-07-25 04:51:00,
2013-07-24 21:56:00,71.3,54.2,29.85,North,0,0.0,0.0,55,0.00,,,0.00,WUHU216HW,2013-07-25 04:56:00,
2013-07-24 22:01:00,70.9,54.4,29.85,North,0,0.0,0.0,56,0.00,,,0.00,WUHU216HW,2013-07-25 05:01:00,
2013-07-24 22:06:00,70.4,53.4,29.85,North,0,0.0,0.0,55,0.00,,,0.00,WUHU216HW,2013-07-25 05:06:00,
2013-07-24 22:11:00,69.8,52.9,29.86,North,0,0.0,0.0,55,0.00,,,0.00,WUHU216HW,2013-07-25 05:11:00,
2013-07-24 22:16:00,69.3,52.9,29.86,North,0,0.0,0.0,56,0.00,,,0.00,WUHU216HW,2013-07-25 05:16:00,
2013-07-24 22:21:00,68.9,53.0,29.86,North,0,0.0,0.0,57,0.00,,,0.00,WUHU216HW,2013-07-25 05:21:00,
2013-07-24 22:27:00,68.2,52.8,29.86,North,0,0.0,0.0,58,0.00,,,0.00,WUHU216HW,2013-07-25 05:27:00,
2013-07-24 22:32:00,67.9,53.0,29.86,North,0,0.0,0.0,59,0.00,,,0.00,WUHU216HW,2013-07-25 05:32:00,
2013-07-24 22:37:00,67.3,53.0,29.86,North,0,0.0,0.0,60,0.00,,,0.00,WUHU216HW,2013-07-25 05:37:00,
2013-07-24 22:42:00,67.1,52.8,29.86,North,0,0.0,0.0,60,0.00,,,0.00,WUHU216HW,2013-07-25 05:42:00,
2013-07-24 22:47:00,66.8,52.5,29.86,North,0,0.0,0.0,60,0.00,,,0.00,WUHU216HW,2013-07-25 05:47:00,
2013-07-24 22:52:00,66.6,52.7,29.86,North,0,0.0,0.0,61,0.00,,,0.00,WUHU216HW,2013-07-25 05:52:00,
2013-07-24 22:57:00,65.9,52.1,29.86,North,0,0.0,0.0,61,0.00,,,0.00,WUHU216HW,2013-07-25 05:57:00,
2013-07-24 23:02:00,65.9,52.5,29.86,North,0,0.0,0.0,62,0.00,,,0.00,WUHU216HW,2013-07-25 06:02:00,
2013-07-24 23:07:00,65.5,52.1,29.87,North,0,0.0,0.0,62,0.00,,,0.00,WUHU216HW,2013-07-25 06:07:00,
2013-07-24 23:12:00,65.3,51.9,29.86,North,0,0.0,0.0,62,0.00,,,0.00,WUHU216HW,2013-07-25 06:12:00,
2013-07-24 23:18:00,65.2,51.8,29.86,North,0,0.0,0.0,62,0.00,,,0.00,WUHU216HW,2013-07-25 06:18:00,
2013-07-24 23:23:00,64.8,51.5,29.86,North,0,0.0,0.0,62,0.00,,,0.00,WUHU216HW,2013-07-25 06:23:00,
2013-07-24 23:28:00,64.6,51.7,29.86,North,0,0.0,0.0,63,0.00,,,0.00,WUHU216HW,2013-07-25 06:28:00,
2013-07-24 23:33:00,64.4,51.5,29.86,North,0,0.0,0.0,63,0.00,,,0.00,WUHU216HW,2013-07-25 06:33:00,
2013-07-24 23:38:00,64.1,51.2,29.86,North,0,0.0,0.0,63,0.00,,,0.00,WUHU216HW,2013-07-25 06:38:00,
2013-07-24 23:43:00,63.7,51.3,29.86,North,0,0.0,0.0,64,0.00,,,0.00,WUHU216HW,2013-07-25 06:43:00,
2013-07-24 23:48:00,63.7,51.3,29.86,North,0,0.0,0.0,64,0.00,,,0.00,WUHU216HW,2013-07-25 06:48:00,
2013-07-24 23:53:00,63.5,51.1,29.86,North,0,0.0,0.0,64,0.00,,,0.00,WUHU216HW,2013-07-25 06:53:00,
2013-07-24 23:58:00,63.5,51.6,29.86,North,0,0.0,0.0,65,0.00,,,0.00,WUHU216HW,2013-07-25 06:58:00,